Regional Weather Roundup
Issued by NWS Midland/Odessa, TX

Skip options and go directly to product.
Home | Oldest Version | Previous Version | Current Version | All | Graphics & Text | Save Text | Print | Product List | Glossary On

Skip product version selection by date and time.   
927
ASUS44 KMAF 301401
RWRMAF
MIDLAND AREA WEATHER ROUNDUP
NATIONAL WEATHER SERVICE MIDLAND TX
900 AM CDT THU JUN 30 2016

...IN SOUTHWEST TEXAS AND SOUTHEAST NEW MEXICO...

CITY           SKY/WX    TMP DP  RH WIND       PRES   REMARKS
ALPINE         SUNNY     73  60  64 CALM      30.24R
ANDREWS        FAIR      78  62  57 S8        30.13R
ARTESIA        SUNNY     77  59  53 S5        30.13R
BIG SPRING     SUNNY     75  61  60 S7        30.13R
CARLSBAD       SUNNY     76  61  59 SE7       30.10R
DRYDEN           N/A     79  66  64 E8        30.05R
FORT STOCKTON  SUNNY     78  63  59 S10       30.10R
GUAD PASS      SUNNY     70  55  59 SW9       30.26R
HOBBS          SUNNY     75  59  57 SE10      30.15R
MARFA          SUNNY    N/A N/A N/A CALM      30.23R
MIDLAND AIRPK  SUNNY     77  63  60 S7        30.12R
MIDLAND INTL   SUNNY     76  63  64 S7        30.11R
ODESSA         SUNNY     78  62  57 S9        30.12R
PECOS          SUNNY     76  62  60 SE3       30.08R
PRESIDIO       FAIR      80  60  50 N3        30.08R
SEMINOLE       SUNNY     76  61  60 S7        30.15R
SNYDER           N/A     75  64  67 S3        30.13R
WINK           SUNNY     76  63  64 E6        30.09R
$$
...OTHER STATIONS IN TEXAS...

CITY           SKY/WX    TMP DP  RH WIND       PRES   REMARKS
ABILENE        SUNNY     79  70  74 S9        30.09R
AMARILLO       CLOUDY    68  61  78 CALM      30.11F
AUSTIN         MOSUNNY   82  74  76 E5        30.00R
BROWNSVILLE    SUNNY     84  76  76 S9        29.95R
CORPUS CHRISTI MOSUNNY   82  77  84 W5        29.97R
DALLAS FTW     MOSUNNY   85  68  56 S6        30.03R
DEL RIO        SUNNY     81  71  71 E9        30.00R
EL PASO        PTSUNNY   79  56  45 SE3       30.12R
HOUSTON INT    MOSUNNY   82  74  76 N8        29.97R
LUBBOCK        CLOUDY    75  62  64 E6        30.18R
SAN ANGELO     SUNNY     76  66  71 S3        30.08R
SAN ANTONIO    SUNNY     83  72  69 E3        30.01R
WACO           SUNNY     82  71  69 E3        30.02R
WICHITA FALLS  NOT AVBL
$$
...OTHER LOCATIONS IN NEW MEXICO...

CITY           SKY/WX    TMP DP  RH WIND       PRES   REMARKS
ALAMAGORDO     CLOUDY    79  54  41 NE3       30.17R
ALBUQUERQUE    LGT RAIN  71  51  49 W6        30.26R
CANNON AFB     SUNNY     75  61  61 SE12      30.20R
CLOVIS         SUNNY     73  57  56 SE7       30.20R
HOLLOMAN AFB   MOSUNNY   78  55  44 E5        30.14R
ROSWELL        SUNNY     77  55  46 CALM      30.12R
RUIDOSO          N/A     68  48  49 NW3       30.36R
SANTA FE       CLOUDY    69  47  45 NW5       30.30R
TRUTH OR CONSE MOSUNNY   77  54  44 E5        30.18R
TUCUMCARI      CLOUDY    73  58  59 SE6       30.15R
$$

USA.gov is the U.S. government's official web portal to all federal, state and local government web resources and services.